TimeEST,TemperatureF,Dew PointF,Humidity,Sea Level PressureIn,VisibilityMPH,Wind Direction,Wind SpeedMPH,Gust SpeedMPH,PrecipitationIn,Events,Conditions,WindDirDegrees,DateUTC
12:06 AM,30.2,28.4,93,29.44,7.0,WNW,26.5,42.6,0.00,Snow,Light Snow,290,2012-12-21 05:06:00
12:16 AM,30.2,26.6,86,29.46,9.0,WNW,26.5,42.6,0.00,Snow,Light Snow,290,2012-12-21 05:16:00
12:28 AM,30.2,26.6,86,29.46,4.0,WNW,25.3,38.0,0.00,Snow,Light Snow,290,2012-12-21 05:28:00
12:36 AM,30.2,26.6,86,29.46,1.8,WNW,28.8,39.1,0.00,Snow,Light Snow,290,2012-12-21 05:36:00
12:54 AM,30.0,27.0,88,29.49,1.8,WNW,27.6,36.8,0.00,Snow,Light Snow,290,2012-12-21 05:54:00
1:01 AM,30.2,26.6,86,29.48,2.5,WNW,26.5,38.0,0.00,Snow,Light Snow,290,2012-12-21 06:01:00
1:19 AM,30.2,26.6,86,29.49,5.0,WNW,28.8,41.4,0.00,Snow,Light Snow,290,2012-12-21 06:19:00
1:54 AM,30.0,26.1,85,29.53,5.0,WNW,26.5,41.4,0.00,Snow,Light Snow,290,2012-12-21 06:54:00
2:52 AM,28.4,24.8,86,29.56,4.0,WNW,25.3,39.1,0.00,Snow,Light Snow,290,2012-12-21 07:52:00
2:54 AM,28.0,25.0,88,29.57,4.0,WNW,26.5,41.4,0.00,Snow,Light Snow,290,2012-12-21 07:54:00
3:54 AM,27.0,24.1,89,29.62,5.0,WNW,27.6,36.8,0.00,Snow,Light Snow,290,2012-12-21 08:54:00
4:02 AM,26.6,24.8,93,29.60,6.0,WNW,26.5,36.8,0.00,Snow,Light Snow,290,2012-12-21 09:02:00
4:54 AM,27.0,23.0,85,29.65,2.5,WNW,28.8,43.7,0.00,Snow,Light Snow,290,2012-12-21 09:54:00
5:08 AM,26.6,21.2,80,29.64,5.0,WNW,27.6,36.8,0.00,Snow,Light Snow,290,2012-12-21 10:08:00
5:26 AM,26.6,21.2,80,29.65,2.5,WNW,23.0,35.7,0.00,Snow,Light Snow,290,2012-12-21 10:26:00
5:37 AM,26.6,21.2,80,29.66,4.0,WNW,24.2,36.8,0.00,Snow,Light Snow,290,2012-12-21 10:37:00
5:54 AM,25.0,21.9,88,29.69,1.8,WNW,23.0,38.0,0.00,Snow,Light Snow,290,2012-12-21 10:54:00
6:22 AM,24.8,21.2,86,29.69,2.5,WNW,23.0,33.4,0.00,Snow,Light Snow,290,2012-12-21 11:22:00
6:41 AM,24.8,21.2,86,29.71,4.0,WNW,24.2,35.7,0.00,Snow,Light Snow,290,2012-12-21 11:41:00
6:54 AM,25.0,21.0,85,29.73,8.0,WNW,23.0,32.2,0.00,Snow,Light Snow,290,2012-12-21 11:54:00
7:17 AM,24.8,19.4,80,29.73,8.0,WNW,23.0,33.4,0.00,Snow,Light Snow,300,2012-12-21 12:17:00
7:46 AM,24.8,19.4,80,29.76,2.0,WNW,18.4,36.8,0.00,Snow,Light Snow,300,2012-12-21 12:46:00
7:54 AM,24.1,19.9,84,29.78,3.0,WNW,20.7,33.4,0.00,Snow,Light Snow,300,2012-12-21 12:54:00
8:54 AM,24.1,19.0,81,29.82,8.0,WNW,21.9,32.2,0.00,,Overcast,300,2012-12-21 13:54:00
9:54 AM,24.1,19.0,81,29.86,10.0,WNW,20.7,31.1,N/A,,Overcast,300,2012-12-21 14:54:00
10:54 AM,24.1,19.0,81,29.91,10.0,WNW,17.3,27.6,N/A,,Overcast,300,2012-12-21 15:54:00
11:54 AM,25.0,19.0,78,29.91,10.0,NW,25.3,32.2,N/A,,Overcast,310,2012-12-21 16:54:00
12:54 PM,26.1,19.0,75,29.94,10.0,WNW,18.4,26.5,N/A,,Overcast,300,2012-12-21 17:54:00
1:54 PM,27.0,19.9,75,29.96,10.0,WNW,13.8,26.5,N/A,,Overcast,300,2012-12-21 18:54:00
2:54 PM,27.0,19.9,75,29.98,10.0,NW,21.9,31.1,N/A,,Overcast,310,2012-12-21 19:54:00
3:54 PM,27.0,19.9,75,30.02,10.0,NW,16.1,26.5,N/A,,Overcast,310,2012-12-21 20:54:00
4:54 PM,27.0,19.9,75,30.05,10.0,NW,10.4,19.6,N/A,,Overcast,320,2012-12-21 21:54:00
5:54 PM,27.0,19.0,72,30.10,10.0,NW,13.8,20.7,N/A,,Overcast,320,2012-12-21 22:54:00
6:54 PM,26.1,19.0,75,30.12,10.0,NNW,9.2,19.6,N/A,,Overcast,340,2012-12-21 23:54:00
7:54 PM,25.0,17.1,72,30.16,10.0,NW,11.5,-,N/A,,Overcast,320,2012-12-22 00:54:00
8:54 PM,24.1,17.1,75,30.17,10.0,NW,12.7,20.7,N/A,,Overcast,310,2012-12-22 01:54:00
9:54 PM,24.1,17.1,75,30.17,10.0,WNW,12.7,-,N/A,,Overcast,300,2012-12-22 02:54:00
10:54 PM,24.1,17.1,75,30.19,10.0,NW,12.7,18.4,N/A,,Overcast,310,2012-12-22 03:54:00
11:54 PM,21.9,15.1,75,30.20,10.0,WNW,12.7,-,N/A,,Overcast,300,2012-12-22 04:54:00